GEFSSGP_con_probscp_060.txt.gz
Probability
0 0 0 0 0 0 0 0 0 0 0 0 0 0 0 0 0 0 0 0 0 0 0 0 0 0 0 0 0 0 0 0 0 0 0 0 0 0 0 0 0 0 0 0 0 0 0 0 0
0 0 0 0 0 0 0 0 0 0 0 0 0 0 0 0 0 0 0 0 0 0 0 0 0 0 0 0 0 0 0 0 0 0 0 0 0 0 0 0 0 0 0 0 0 0 0 0 0
0 0 0 0 0 0 0 0 0 0 0 0 0 0 0 0 0 0 0 0 0 0 0 0 0 0 0 0 0 0 0 0 0 0 0 0 0 0 0 0 0 0 0 0 0 0 0 0 0
0 0 0 0 0 0 0 0 0 0 0 0 0 0 0 0 0 0 0 0 0 0 0 0 0 0 0 0 0 0 0 0 0 0 0 0 0 0 0 0 0 0 0 0 0 0 0 0 0
0 0 0 0 0 0 0 0 0 0 0 0 0 0 0 0 0 0 0 0 0 0 0 0 0 0 0 0 0 0 0 0 0 0 0 0 0 0 0 0 0 0 0 0 0 0 0 0 0
0 0 0 0 0 0 0 0 0 0 0 0 0 0 0 0 0 0 0 0 0 0 0 0 0 0 0 0 0 0 0 0 0 0 0 0 0 0 0 0 0 0 0 0 0 0 0 0 0
0 0 0 0 0 0 0 0 0 0 0 0 0 0 0 0 0 0 0 0 0 0 0 0 0 0 0 0 1 1 1 1 1 1 1 1 0 0 1 1 0 0 0 0 0 0 0 0 0
0 0 0 0 0 0 0 0 0 0 0 0 0 0 0 0 0 0 0 0 0 0 0 0 0 0 0 1 2 4 4 5 4 3 2 1 0 1 3 3 1 1 0 0 0 0 0 0 0
0 0 0 0 0 0 0 0 0 0 0 0 0 0 0 0 0 0 0 0 0 0 0 0 0 0 0 1 3 5 7 8 7 5 5 4 2 3 5 6 8 6 2 1 1 0 0 0 0
0 0 0 0 0 0 0 0 0 0 0 0 0 0 0 1 3 3 2 1 1 1 1 0 1 1 2 2 3 4 7 11 9 7 9 9 5 4 6 12 17 13 6 4 3 2 0 0 0
0 0 0 0 0 0 0 0 0 0 0 0 0 1 3 5 7 7 5 4 3 2 2 2 3 4 5 6 6 6 10 15 15 13 15 16 14 11 12 17 22 21 15 13 12 8 3 0 0
0 0 0 0 0 0 0 0 0 0 0 0 2 5 9 11 10 9 8 5 4 3 3 4 7 9 11 12 12 12 15 18 18 19 21 22 23 21 21 26 28 27 27 25 22 18 11 6 5
0 0 0 0 0 0 0 0 0 0 0 2 6 11 15 16 15 13 10 7 5 4 4 7 12 16 21 25 22 18 19 19 20 21 24 27 29 28 29 36 38 35 36 39 35 28 25 22 19
0 0 0 0 0 0 0 0 1 2 3 6 13 19 23 25 25 24 19 12 7 6 8 13 19 27 35 40 34 24 22 24 24 24 25 29 32 31 34 39 43 44 47 54 51 43 42 42 38
0 0 0 0 0 0 0 2 5 8 10 14 22 31 40 42 39 34 26 17 11 12 18 25 28 35 46 51 44 31 25 26 29 30 32 34 33 34 38 42 46 52 56 64 66 60 59 60 57
0 0 0 0 0 0 0 4 13 19 22 27 35 44 55 59 51 39 28 20 17 22 30 32 31 35 45 51 46 37 29 28 32 35 35 35 33 35 41 48 52 57 61 67 72 73 74 76 75
0 0 0 0 0 0 1 8 21 31 35 41 47 51 58 61 53 42 32 27 28 34 36 33 29 33 41 45 43 37 33 31 31 32 31 31 30 33 41 46 49 56 62 67 73 80 84 86 86
0 0 0 1 1 2 4 12 27 39 44 49 53 53 54 55 51 46 42 39 39 40 39 34 33 36 40 40 37 34 32 30 27 26 24 23 24 29 35 36 39 49 58 63 68 75 81 84 84
0 0 0 1 2 3 5 12 24 36 45 52 55 54 53 53 52 52 54 52 47 45 42 38 37 39 38 35 32 31 29 26 22 20 17 15 18 22 26 28 32 41 48 52 57 65 71 75 78
0 0 0 1 2 3 3 7 15 26 37 47 52 53 52 52 55 59 61 57 51 48 44 39 37 36 35 32 28 27 26 23 19 17 15 11 11 15 18 23 27 33 38 40 47 57 64 69 72
0 0 0 0 1 1 1 2 7 15 26 37 46 51 51 52 54 56 55 53 51 49 43 37 34 34 34 32 28 25 23 20 16 15 14 11 9 10 14 18 22 26 28 31 38 49 59 63 63
0 0 0 0 0 0 0 1 4 8 15 27 40 47 49 48 47 45 43 44 44 43 39 35 35 36 35 34 32 29 23 17 14 13 13 11 9 8 10 12 15 17 18 21 27 37 47 52 51
0 0 0 0 0 0 0 0 2 4 8 18 30 37 37 37 34 33 33 34 35 35 33 35 40 44 42 41 42 39 29 19 16 16 15 12 8 5 4 5 6 8 10 12 16 24 31 37 40
0 0 0 0 0 0 0 0 1 3 5 10 18 22 22 21 21 20 22 24 24 25 27 35 48 57 57 55 56 53 42 32 27 23 19 13 8 3 2 1 1 3 4 5 7 12 16 22 27
0 0 0 0 0 0 0 0 1 1 2 5 9 11 11 11 10 10 11 12 13 15 20 30 48 63 67 66 64 61 56 48 40 33 26 17 8 4 3 2 1 1 1 1 2 3 6 10 14
0 0 0 0 0 0 0 0 0 0 1 2 3 4 5 5 4 5 7 7 8 12 17 25 41 58 65 66 66 64 62 57 50 44 35 25 15 9 7 5 2 0 0 0 0 1 1 3 6
0 0 0 0 0 0 0 0 0 0 0 0 0 1 1 1 2 3 5 7 10 14 17 24 35 47 54 59 60 60 59 59 59 55 47 39 31 22 16 11 5 1 0 0 0 0 0 1 2
0 0 0 0 0 0 0 1 1 1 0 0 0 0 0 0 1 2 5 8 12 15 17 21 27 33 39 44 47 49 51 56 61 60 55 49 44 36 26 18 10 4 1 1 0 0 0 0 1
0 0 0 0 0 0 0 1 1 1 0 0 0 0 0 0 0 2 5 7 9 11 13 15 17 20 24 28 32 36 41 47 53 58 57 54 49 41 31 21 14 7 3 2 1 0 0 0 0
0 0 0 0 0 0 0 0 1 0 0 0 0 0 0 0 0 1 2 4 6 7 9 10 11 13 16 19 23 29 34 39 45 52 57 55 49 41 30 22 14 7 4 2 1 0 0 0 0

GEFSSGP_con_probscp_066.txt.gz
Probability
0 0 0 2 7 8 3 0 0 0 0 0 0 0 0 0 0 0 0 0 1 0 0 0 0 0 0 0 0 0 1 1 2 1 0 0 0 0 0 0 0 0 0 0 0 0 0 0 0
0 0 0 1 3 3 1 0 0 0 0 0 0 0 0 0 0 0 0 1 1 1 0 0 0 0 0 0 1 1 2 2 2 1 0 0 0 0 0 0 0 0 0 0 0 0 0 0 0
0 0 0 0 0 0 0 0 0 0 0 0 0 0 0 0 0 0 0 1 1 1 0 0 0 0 0 1 2 3 3 3 3 2 1 1 0 0 0 0 0 0 0 0 0 0 0 0 0
0 0 0 0 0 0 0 0 0 0 0 0 0 0 0 0 0 0 0 0 1 1 0 0 0 0 0 1 2 3 3 3 3 3 3 2 1 1 1 0 0 0 0 0 0 0 0 0 0
0 0 0 0 0 0 0 0 0 0 0 0 0 0 0 0 0 0 0 0 2 4 2 0 0 0 1 1 2 3 3 3 3 3 3 3 3 2 2 1 1 1 1 1 0 0 0 0 0
0 0 0 0 0 0 0 0 0 0 0 0 0 0 0 0 0 0 0 0 4 8 6 2 1 1 2 2 3 3 3 3 3 3 3 3 3 3 3 3 2 3 3 3 2 1 1 1 1
0 0 0 0 0 0 0 0 0 0 0 0 0 0 0 0 0 0 0 0 5 11 9 3 2 3 3 3 3 4 4 4 4 3 3 3 4 4 4 5 6 6 5 5 4 4 3 3 3
0 0 0 0 0 0 0 0 0 0 0 0 0 0 0 0 0 0 0 0 5 11 10 5 5 5 4 6 7 8 9 9 8 7 6 5 5 7 12 18 20 18 15 12 10 9 7 7 7
0 0 0 0 0 0 0 0 0 0 0 1 2 1 0 0 1 1 1 1 5 12 13 12 12 9 6 11 17 18 19 21 20 18 18 18 13 12 20 32 42 45 41 33 28 23 18 14 13
0 0 0 0 0 0 0 0 0 0 2 6 8 5 2 2 3 4 4 5 10 16 18 21 24 17 10 19 31 30 30 39 39 33 35 39 32 20 21 40 63 72 68 58 49 43 35 26 21
0 0 0 0 0 0 0 0 0 1 5 10 15 13 7 6 8 10 10 14 20 23 22 29 38 30 17 26 41 39 40 55 60 52 52 58 54 38 31 51 76 84 79 69 62 58 51 39 32
0 0 0 0 0 0 0 0 0 2 5 9 15 18 15 15 17 19 20 28 36 32 29 41 56 51 34 36 47 48 47 60 72 74 71 73 74 62 55 66 82 86 82 74 69 67 63 53 45
0 0 0 0 0 0 0 0 1 4 5 7 12 20 22 24 30 33 37 48 56 48 44 59 75 74 62 55 57 56 56 62 75 84 86 85 86 81 76 80 84 84 81 79 79 75 72 68 62
0 0 0 0 0 0 0 0 1 3 5 7 12 19 24 31 41 51 60 70 74 68 65 78 89 91 86 77 70 64 60 64 73 83 88 89 89 89 88 87 85 81 78 80 82 80 76 73 72
0 0 0 0 0 0 0 0 0 2 5 7 12 19 28 40 51 63 77 85 84 82 85 92 96 97 96 90 80 71 64 65 72 78 83 87 87 86 86 85 82 78 76 79 81 79 75 70 69
0 0 0 0 0 0 0 0 0 2 5 8 14 24 40 54 61 71 85 91 89 90 96 98 98 98 98 93 85 76 69 67 70 74 79 82 79 74 74 75 76 74 73 75 74 72 71 67 65
0 0 0 0 0 0 0 0 1 3 6 10 18 31 48 62 70 76 86 93 95 97 99 99 97 97 95 90 84 76 71 67 66 71 76 73 64 58 57 60 62 62 64 66 63 63 65 65 64
0 0 0 0 0 0 0 0 2 3 7 13 23 35 49 63 73 78 84 91 96 99 100 99 97 93 90 86 81 75 69 63 61 67 70 62 51 45 42 43 43 44 47 52 53 52 55 58 59
0 0 0 0 0 0 0 0 1 4 9 18 30 42 53 64 74 80 84 87 92 97 99 98 95 90 85 83 79 75 69 62 60 62 61 52 43 36 31 29 29 29 32 37 40 43 43 44 47
0 0 0 0 0 0 0 0 3 7 13 22 34 46 57 66 75 81 83 83 87 92 94 93 92 87 83 80 76 72 69 65 62 61 56 48 40 30 23 21 21 21 22 25 29 33 33 32 33
0 0 0 0 0 0 0 1 7 14 18 23 32 44 57 66 72 77 79 80 83 87 86 85 87 86 82 78 74 71 70 67 66 66 61 52 40 28 22 19 18 17 16 18 21 25 26 24 24
0 0 0 0 0 0 0 2 10 18 24 28 32 41 52 59 63 67 71 74 75 77 80 83 85 85 84 81 78 78 78 73 72 74 70 61 48 35 28 23 21 19 15 13 13 15 17 15 13
0 0 0 0 0 0 0 2 10 21 31 35 35 38 45 49 51 54 57 60 62 64 73 81 85 85 86 84 84 87 87 83 81 81 77 71 61 50 40 33 30 26 19 14 12 11 9 8 7
0 0 0 0 0 0 0 2 10 23 33 37 35 36 39 41 43 43 43 45 48 54 63 72 78 81 82 82 85 88 90 90 89 85 80 76 71 64 55 49 47 40 29 21 17 12 8 6 7
0 0 0 0 0 0 0 2 11 24 31 33 33 34 36 35 36 36 35 37 41 46 52 59 66 71 74 76 78 81 83 86 86 84 79 75 72 70 66 62 58 52 41 32 23 16 10 8 9
0 0 0 0 0 0 1 7 16 23 23 22 23 26 28 27 27 27 27 28 32 34 38 43 49 54 59 63 67 71 73 75 77 78 77 74 71 68 67 64 59 56 50 42 33 22 14 10 10
0 0 0 0 0 0 3 11 20 21 15 10 10 13 18 19 18 17 17 18 19 21 23 26 31 35 38 42 48 53 55 58 63 68 70 71 71 68 64 61 58 57 55 50 42 29 18 14 12
0 0 0 0 0 0 2 10 23 28 19 8 6 9 12 13 11 10 9 9 9 11 12 14 17 21 22 24 28 30 32 37 44 50 55 60 65 66 63 60 59 59 58 55 47 33 22 17 13
0 0 0 0 0 0 2 12 30 36 25 13 8 9 10 9 7 6 4 3 3 4 5 6 8 10 12 14 15 15 16 20 26 32 36 41 47 51 54 56 59 59 56 53 46 33 23 16 11
0 0 0 0 0 0 2 16 33 35 24 13 8 9 9 7 6 4 2 1 1 1 1 1 2 4 6 9 11 11 10 12 17 21 25 29 32 36 42 50 57 57 52 49 43 32 22 15 10

GEFSSGP_con_probscp_072.txt.gz
Probability
0 0 0 0 0 1 1 1 0 0 0 0 0 0 0 0 0 0 0 0 0 0 0 0 0 0 0 0 0 0 0 0 0 0 0 0 0 0 0 0 0 0 0 0 0 0 0 0 0
0 0 0 0 0 0 0 0 0 0 0 0 0 0 0 0 0 0 0 0 0 0 0 0 0 0 0 0 0 0 0 0 0 0 0 0 0 0 0 0 0 0 0 0 0 0 0 0 0
0 0 0 0 0 0 0 0 0 0 0 0 0 0 0 0 0 0 0 0 1 0 0 1 2 1 1 0 0 0 0 0 0 0 0 0 0 0 0 0 0 0 0 0 0 0 0 0 0
0 0 0 0 0 0 0 0 0 0 0 0 0 0 0 0 0 0 0 0 0 0 0 2 5 4 2 1 0 0 0 0 0 0 0 0 0 0 0 0 0 0 0 0 0 0 0 0 0
0 0 0 0 0 0 0 0 0 0 0 0 0 0 0 0 1 1 1 0 0 1 1 4 8 7 3 1 0 0 0 0 0 0 0 0 0 0 0 0 0 0 0 0 0 0 0 0 0
0 0 0 0 0 0 0 0 0 0 0 0 0 0 0 1 3 3 2 1 0 2 3 5 8 7 4 1 1 1 1 1 1 0 0 0 0 0 0 0 0 0 0 0 0 0 0 0 0
0 0 0 0 0 0 0 0 0 0 0 0 0 0 1 2 4 5 4 2 1 2 4 6 5 4 3 2 2 2 2 2 1 0 0 0 0 0 0 0 0 0 0 0 0 0 0 0 0
0 0 0 0 0 0 0 0 0 0 0 0 0 0 1 2 5 9 10 7 3 2 4 5 4 2 1 2 2 2 2 2 1 0 0 0 0 0 0 0 0 0 1 1 1 0 0 0 0
0 0 0 0 0 0 0 0 0 0 0 0 0 0 0 3 9 16 20 18 10 4 2 3 4 3 2 1 1 1 1 1 0 0 0 0 0 0 0 0 1 2 4 6 6 4 3 3 3
0 0 0 0 0 0 0 0 0 1 1 1 1 3 3 5 12 23 32 32 23 13 6 3 3 4 3 2 1 0 0 0 0 0 0 0 0 0 0 1 2 4 8 13 14 13 14 14 14
0 0 0 0 0 0 0 0 0 1 1 2 6 12 13 12 15 26 39 44 40 29 16 6 3 4 4 3 2 1 0 0 0 1 1 1 1 1 1 2 3 5 10 16 20 23 26 27 27
0 0 0 0 0 0 0 0 0 1 3 8 16 24 26 21 18 25 39 50 53 45 32 18 10 7 6 6 7 6 4 3 3 4 5 6 6 5 4 4 4 6 10 15 20 24 26 28 29
0 0 0 0 0 0 0 0 1 3 8 17 27 34 36 31 24 27 40 53 61 60 51 38 28 22 19 19 22 20 17 14 14 15 15 16 15 13 10 8 10 12 13 15 17 18 18 19 19
0 0 0 0 0 0 0 0 1 6 17 29 37 40 38 36 33 37 47 58 67 72 68 59 52 48 45 44 44 40 37 34 31 29 29 28 27 23 19 17 19 20 18 17 16 15 14 13 13
0 0 0 0 0 0 0 0 1 10 26 40 44 41 37 38 42 49 55 62 69 73 74 73 71 70 69 67 63 58 53 49 44 39 38 40 38 31 27 25 24 24 22 20 18 16 14 12 12
0 0 0 0 0 0 0 0 2 14 33 47 45 40 39 42 49 55 57 60 64 66 70 75 76 75 75 74 70 65 58 52 47 43 42 44 41 35 31 27 25 23 22 19 16 13 12 9 8
0 0 0 0 0 0 0 0 4 17 33 42 42 40 42 48 52 53 53 52 54 57 62 68 70 69 69 67 65 61 55 48 44 42 40 39 38 34 31 26 22 20 18 15 13 10 8 5 4
0 0 0 0 0 0 1 3 8 18 30 37 41 44 47 51 50 49 47 44 43 45 51 56 60 61 61 59 57 54 49 43 37 34 33 32 31 30 27 22 17 14 13 12 9 7 5 4 2
0 0 0 0 0 1 3 7 12 18 28 37 44 51 53 50 45 42 41 38 36 36 40 44 48 51 52 51 49 47 41 33 27 25 25 24 24 23 18 14 11 10 10 9 6 4 4 3 2
0 0 0 0 0 1 4 9 14 18 26 35 42 48 48 42 35 31 31 32 32 32 32 33 34 36 39 39 40 40 35 28 23 21 20 19 19 17 12 7 7 8 8 5 2 1 1 1 1
0 0 0 0 0 0 2 7 11 16 23 30 33 34 33 29 23 20 21 23 24 25 24 23 21 21 23 25 28 32 31 28 25 22 18 16 15 15 10 6 6 7 6 3 1 0 0 0 0
0 0 0 0 0 0 1 2 6 12 19 22 21 21 21 19 14 12 13 15 14 13 13 13 11 11 12 15 19 23 26 26 23 21 19 14 12 12 10 7 7 6 3 1 0 0 0 0 0
0 0 0 0 0 0 0 0 2 8 13 12 10 12 14 12 9 8 8 8 6 4 4 4 4 5 7 9 13 17 19 19 20 22 21 17 12 11 11 10 8 6 3 1 0 0 0 0 0
0 0 0 0 0 0 0 0 1 4 6 5 4 6 8 7 6 5 5 4 3 1 1 1 1 3 5 6 8 11 12 13 17 21 22 18 13 11 11 10 7 5 4 2 1 0 0 0 0
0 0 0 0 0 0 0 0 0 1 1 1 2 4 5 4 4 3 3 2 2 1 1 1 1 1 3 4 5 6 6 8 10 13 15 13 10 9 8 6 5 5 4 4 3 1 0 0 0
0 0 0 0 0 0 0 0 0 0 0 0 1 2 3 3 2 1 1 1 1 0 1 1 0 0 1 2 2 2 2 3 5 5 5 6 6 4 3 2 3 4 5 5 4 1 0 0 0
0 0 0 0 0 0 0 0 0 0 0 0 0 1 1 1 0 0 0 0 0 0 0 0 0 0 0 1 1 0 0 0 1 1 0 1 2 2 1 1 1 2 4 5 3 1 0 0 0
0 0 0 0 0 0 0 0 0 0 0 0 0 0 0 0 0 0 0 0 0 0 0 0 0 0 0 0 0 0 0 0 0 0 0 0 0 1 2 1 0 0 1 3 3 1 0 0 0
0 0 0 0 0 0 0 0 0 0 0 0 0 0 0 0 0 0 0 0 0 0 0 0 0 0 0 0 0 0 0 0 0 0 0 0 0 1 1 1 0 0 0 1 2 2 1 0 0
0 0 0 0 0 0 0 0 0 0 0 0 0 0 0 0 0 0 0 0 0 0 0 0 0 0 0 0 0 0 0 0 0 0 0 0 0 0 0 0 0 0 0 0 1 2 2 1 0

GEFSSGP_con_probscp_078.txt.gz
Probability
0 0 0 0 0 0 0 0 0 0 0 0 0 0 0 0 0 0 0 0 0 0 0 0 0 1 0 0 0 0 0 0 0 0 0 0 0 0 0 0 0 0 0 0 0 0 0 0 0
0 0 0 0 0 0 0 0 0 0 0 0 0 0 0 0 0 0 0 0 0 0 0 1 2 3 2 0 0 0 0 0 0 0 0 0 0 0 0 0 0 0 0 0 0 0 0 0 0
0 0 0 0 0 0 0 0 0 0 0 0 0 0 0 0 0 0 0 0 0 0 0 3 8 9 6 3 1 0 0 0 0 0 0 0 0 0 0 0 0 0 0 0 0 0 0 0 0
0 0 0 0 0 0 0 0 0 0 0 0 0 0 0 0 0 0 0 0 0 1 1 8 18 19 13 7 3 1 1 1 1 0 0 0 0 0 0 0 0 0 0 0 0 0 0 0 0
0 0 0 0 0 0 0 0 0 0 0 0 0 0 0 0 0 0 0 0 0 2 4 13 28 30 22 15 9 5 3 2 2 1 0 0 0 0 0 0 0 0 0 0 0 0 0 0 0
0 0 0 0 0 0 0 0 0 0 0 0 0 0 0 0 0 0 0 0 1 3 8 17 31 37 32 24 17 10 6 4 2 1 0 0 0 0 0 0 0 0 0 0 0 0 0 0 0
0 0 0 0 0 0 0 0 0 0 0 0 0 0 0 0 0 0 0 0 2 6 13 22 31 38 36 29 21 15 9 5 2 0 0 0 0 0 0 0 0 0 0 0 0 0 0 0 0
0 0 0 0 0 0 0 0 0 0 0 0 0 0 0 1 2 3 3 3 5 9 18 28 36 40 37 30 24 19 14 8 3 0 0 0 0 0 0 0 0 0 0 0 0 0 0 0 0
0 0 0 0 0 0 0 0 0 0 0 0 1 2 7 12 13 13 13 12 12 14 22 33 42 44 41 35 29 24 19 12 6 2 0 0 0 0 0 0 0 0 0 0 0 0 0 0 1
0 0 0 0 0 0 0 0 0 0 0 1 3 9 24 36 36 28 24 20 19 19 24 33 42 47 46 41 35 29 24 18 11 5 2 1 0 0 0 0 0 0 0 0 0 0 0 3 6
0 0 0 0 0 0 0 0 0 0 1 3 7 21 45 59 56 44 33 27 24 23 25 31 40 45 47 45 40 35 29 22 15 10 6 4 2 1 0 0 0 0 0 0 0 0 1 5 10
0 0 0 0 0 0 0 0 1 2 3 6 13 31 54 67 64 54 43 36 33 30 29 33 38 41 44 44 41 37 32 25 19 15 11 8 7 5 3 1 0 0 0 0 1 1 2 4 6
0 0 0 0 0 0 1 1 3 5 6 10 20 36 52 62 62 56 50 47 45 42 40 40 42 42 42 41 38 36 33 26 21 18 16 14 13 10 6 3 1 0 1 1 2 2 2 2 1
0 0 0 0 0 0 1 2 4 7 9 14 24 37 47 51 53 51 48 48 50 48 46 46 47 45 43 38 34 33 31 25 21 19 18 19 17 13 9 5 1 1 2 4 4 4 3 2 1
0 0 0 0 0 0 1 3 6 9 13 18 28 40 45 43 42 40 39 41 44 43 42 44 44 42 40 36 33 31 27 21 19 17 17 19 19 16 13 8 3 3 5 8 9 8 7 5 4
0 0 0 0 0 0 0 3 9 14 18 23 32 41 42 38 35 32 31 33 34 33 33 36 38 36 34 32 30 27 23 21 20 18 17 18 20 20 17 12 7 6 8 10 11 10 9 8 6
0 0 0 0 0 1 2 6 12 17 21 24 30 36 37 35 31 28 28 27 26 25 25 29 32 32 29 27 27 25 22 22 24 20 16 16 18 19 18 14 11 9 9 9 10 9 7 6 5
0 0 0 0 0 2 5 9 12 15 18 21 25 28 29 27 24 23 22 23 21 19 19 21 24 25 24 24 25 24 20 21 23 19 14 13 14 16 16 13 10 9 9 8 8 7 5 3 3
0 0 0 0 0 2 5 7 8 8 11 15 18 18 18 16 15 15 16 18 18 15 14 15 16 17 19 21 21 18 15 16 17 14 11 10 13 15 15 11 7 7 8 8 6 5 4 3 2
0 0 0 0 0 1 2 3 3 3 5 8 10 10 9 8 6 7 11 13 13 11 9 9 9 9 11 14 13 10 9 10 11 9 8 8 10 12 12 9 5 4 4 4 3 3 3 2 1
0 0 0 0 0 0 1 1 0 1 2 5 6 5 5 4 2 2 5 7 7 7 6 5 4 4 5 5 5 4 5 6 7 5 4 5 7 9 9 7 4 2 1 1 1 1 1 1 0
0 0 0 0 0 0 0 0 0 1 3 5 5 3 2 1 1 1 2 3 3 4 4 3 1 0 1 1 1 2 3 4 5 3 2 3 4 6 6 4 2 1 0 0 0 0 0 0 0
0 0 0 0 0 0 0 0 0 1 2 3 3 1 0 0 1 1 1 1 1 2 2 1 0 0 0 0 0 1 1 1 2 1 1 1 2 3 2 2 1 0 0 0 0 0 0 0 0
0 0 0 0 0 0 0 0 0 0 1 2 1 0 0 0 0 0 0 0 0 1 1 0 0 0 0 0 0 0 0 0 0 0 0 0 0 0 0 0 0 0 0 0 0 0 0 0 0
0 0 0 0 0 0 0 0 0 0 0 0 0 0 0 0 0 0 0 0 0 0 0 0 0 0 0 0 0 0 0 0 0 0 0 0 0 0 0 0 0 0 0 0 0 0 0 0 0
0 0 0 0 0 0 0 0 0 0 0 0 0 0 0 0 0 0 0 0 0 0 0 0 0 0 0 0 0 0 0 0 0 0 0 0 0 0 0 0 0 0 0 0 0 0 0 0 0
0 0 0 0 0 0 0 0 0 0 0 0 0 0 0 0 0 0 0 0 0 0 0 0 0 0 0 0 0 0 0 0 0 0 0 0 0 0 0 0 0 0 0 0 0 0 0 0 0
0 0 0 0 0 0 0 0 0 0 0 0 0 0 0 0 0 0 0 0 0 0 0 0 0 0 0 0 0 0 0 0 0 0 0 0 0 0 0 0 0 0 0 0 0 0 0 0 0
0 0 0 0 0 0 0 0 0 0 0 0 0 0 0 0 0 0 0 0 0 0 0 0 0 0 0 0 0 0 0 0 0 0 0 0 0 0 0 0 0 0 0 0 0 0 0 0 0
0 0 0 0 0 0 0 0 0 0 0 0 0 0 0 0 0 0 0 0 0 0 0 0 0 0 0 0 0 0 0 0 0 0 0 0 0 0 0 0 0 0 0 0 0 0 0 0 0

GEFSSGP_con_probscp_084.txt.gz
Probability
0 0 0 0 0 0 0 0 0 0 0 0 0 0 0 0 0 0 0 0 0 1 2 1 0 0 0 0 0 0 1 1 1 0 0 0 0 0 0 0 0 0 0 0 0 0 0 0 0
0 0 0 0 0 0 0 0 0 0 0 0 0 0 0 0 0 0 0 0 0 1 2 2 1 0 0 0 0 0 1 2 2 1 0 1 1 0 0 0 0 0 0 0 0 0 0 0 0
0 0 0 0 0 0 0 0 0 0 0 0 0 0 0 0 0 0 0 0 0 0 2 3 2 1 0 0 0 0 1 2 2 1 1 2 1 0 0 0 0 0 0 0 0 0 0 0 0
0 0 0 0 0 0 0 0 0 0 0 0 0 0 0 1 1 1 1 1 0 0 2 5 4 1 0 0 0 0 1 2 3 3 3 2 1 0 0 0 0 0 0 0 0 0 0 0 0
0 0 0 0 0 0 0 0 0 0 0 0 0 0 1 3 3 3 2 1 0 0 3 8 7 2 1 0 0 1 3 4 4 5 5 3 1 0 0 0 0 0 0 0 0 0 0 0 0
0 0 0 0 0 0 0 0 0 0 0 0 0 0 2 5 7 5 3 1 0 0 4 10 9 4 1 0 0 1 3 5 6 7 7 5 3 1 0 0 0 0 0 0 0 0 0 0 0
0 0 0 0 0 0 0 0 0 0 0 0 0 0 2 7 11 10 7 3 1 0 3 7 6 2 1 0 1 1 3 5 7 7 7 5 3 1 0 0 0 0 0 0 0 0 0 0 0
0 0 0 0 0 0 0 0 0 0 0 0 0 0 6 16 23 22 16 8 4 3 3 4 3 2 1 1 3 5 7 9 10 10 8 5 2 0 0 0 0 0 0 0 0 0 0 0 0
0 0 0 0 0 0 0 0 0 0 0 0 0 1 13 32 43 42 34 23 15 11 8 7 7 6 4 4 6 9 12 15 16 16 14 10 6 3 2 2 3 2 0 0 0 0 0 0 0
0 0 0 0 0 0 0 0 0 0 1 1 2 6 21 42 56 60 53 43 35 26 19 16 15 13 11 12 14 15 18 22 24 24 24 23 19 15 10 11 11 6 1 0 0 0 0 0 0
0 0 0 0 0 0 0 0 0 1 2 3 5 11 25 41 54 62 63 58 53 41 31 28 27 25 24 25 27 27 30 34 34 34 37 38 37 33 28 26 22 14 7 5 5 5 4 3 2
0 0 0 0 0 0 0 1 3 5 5 5 8 15 26 38 47 57 62 64 61 51 41 41 43 43 43 44 43 41 42 45 46 50 53 53 54 50 46 42 34 25 18 15 15 15 12 9 7
0 0 0 0 0 0 0 2 6 10 11 13 17 24 32 41 47 53 60 64 63 55 48 51 57 59 60 60 55 50 51 52 54 59 62 61 61 60 58 55 47 37 30 26 23 20 17 15 12
0 0 0 0 0 0 1 4 9 15 19 24 32 41 48 53 57 58 59 62 60 52 47 51 60 66 69 68 64 58 56 56 57 59 62 60 60 63 65 61 54 46 41 37 30 22 18 17 14
0 0 0 0 0 0 1 6 13 17 22 30 42 53 61 65 66 64 63 62 59 53 48 49 55 64 71 72 69 65 61 58 57 58 59 57 55 58 62 59 54 51 49 45 37 26 20 18 15
0 0 0 0 0 0 2 8 13 17 22 30 38 47 56 61 64 64 62 62 62 61 59 55 53 58 66 70 69 66 61 56 53 53 53 51 46 46 50 52 50 49 47 44 38 29 22 18 16
0 0 0 0 0 0 2 7 12 16 21 25 28 34 41 46 51 54 56 57 60 64 66 61 56 56 59 62 62 57 51 47 44 42 40 38 35 32 36 41 41 40 39 36 33 29 23 18 15
0 0 0 0 0 0 2 6 10 15 18 20 23 25 27 30 33 39 45 49 53 58 60 57 55 52 50 48 47 42 36 33 33 31 28 27 27 25 27 31 32 32 32 30 28 25 20 15 13
0 0 0 0 0 0 1 2 6 10 13 15 18 19 19 19 22 27 32 37 44 48 50 48 45 40 36 32 29 26 23 20 20 19 18 20 22 23 24 27 28 28 27 25 21 18 14 10 10
0 0 0 0 0 0 0 1 2 4 8 10 12 13 14 17 20 21 22 25 30 36 38 36 30 25 22 20 16 14 12 11 11 10 12 15 18 19 19 22 25 24 21 17 13 10 9 8 9
0 0 0 0 0 0 0 2 5 5 6 7 7 9 11 13 15 15 14 14 17 21 23 22 19 15 14 12 8 6 6 7 6 6 8 11 14 14 13 15 18 17 14 12 10 7 7 8 8
0 0 0 0 0 0 0 4 9 9 7 6 6 5 5 6 7 6 6 6 7 9 10 10 10 9 7 5 4 3 2 3 3 3 4 6 9 10 9 9 12 13 12 11 10 9 11 11 10
0 0 0 0 0 0 0 3 8 8 7 6 5 4 2 2 2 1 1 1 2 2 2 3 4 4 2 1 1 1 1 1 1 1 1 3 4 5 4 6 9 12 12 12 12 12 16 18 18
0 0 0 0 0 0 0 3 6 7 6 6 4 2 1 0 0 0 0 0 0 0 0 1 2 1 0 0 0 0 0 1 1 1 0 1 1 1 1 2 5 8 10 12 15 18 22 25 28
0 0 0 0 0 0 0 3 7 7 4 3 2 1 0 0 0 1 1 0 0 0 0 0 1 1 0 0 0 0 1 2 2 1 0 0 0 0 0 0 1 3 6 9 16 22 26 29 32
0 0 0 0 0 0 0 3 5 5 2 1 0 0 0 0 1 2 2 1 0 0 0 0 1 1 1 0 0 0 1 1 1 0 0 1 0 0 0 0 0 0 2 5 10 18 23 27 31
0 0 0 0 0 0 0 2 2 2 2 1 0 0 0 0 1 2 3 2 1 0 0 0 1 2 2 1 0 0 0 0 0 0 0 0 0 0 0 0 0 0 0 2 5 9 15 22 27
0 0 0 0 0 0 0 1 1 1 1 1 0 0 0 0 0 1 2 3 2 1 0 0 1 2 3 1 0 0 0 0 0 0 0 0 0 0 0 0 0 0 1 2 3 5 8 14 19
0 0 0 0 0 0 0 0 1 1 0 0 0 0 0 0 0 0 1 2 2 1 0 0 0 1 1 0 0 0 0 0 0 0 0 0 0 0 0 0 0 0 1 2 2 3 4 6 8
0 0 0 0 0 0 0 0 1 0 0 0 0 0 0 0 0 0 0 1 1 0 0 0 0 0 0 0 0 0 0 0 0 0 1 1 1 0 0 0 0 0 0 1 1 1 1 2 2